Klamath Falls, OR

9:46 PM PST on February 26, 2017 (GMT -0800)
Klamath Falls City Schools | | Change Station
Active Advisory: Winter Weather Advisory

Elev 4104 ft 42.22 °N, 121.75 °W | Updated 0 second ago

Partly Cloudy
Partly Cloudy
22.0 °F
Feels Like 22 °F
N
0.0
Wind Variable Wind from East
Gusts 5.0 mph

Today
High -- | Low -- °F
--% Chance of Precip.
Yesterday
High -- | Low -- °F
Precip. -- in
Pressure 29.75 in
Visibility 10.0 miles
Clouds Clear
Windchill 22 °F
Dew Point 20 °F
Humidity 94%
Rainfall 0.00 in
Snow Depth Not available.
6:46 AM 5:54 PM
New Moon, 0% visible
METAR KLMT 270453Z 24009KT 10SM CLR M05/M08 A2968 RMK AO2 SLP072 T10501078
Pressure 29.75 in
Visibility 10.0 miles
Clouds Clear
Windchill 22 °F
Dew Point 20 °F
Humidity 94%
Rainfall 0.00 in
Snow Depth Not available.
6:46 AM 5:54 PM
New Moon, 0% visible
METAR KLMT 270453Z 24009KT 10SM CLR M05/M08 A2968 RMK AO2 SLP072 T10501078

Get Your Daily Forecast Email!

Thanks for signing up!

Be on the lookout for a verification email in your inbox.

You'll start receiving the daily forecast at 8 AM.

×

10-Day Weather Forecast

Almanac

Astronomy

Feb. 26, 2017 Rise Set
Actual Time
Civil Twilight
Nautical Twilight
Astronomical Twilight
Moon
Length of Visible Light
Length of Day
Tomorrow will be .
, % of the Moon is Illuminated

Today's Extremes

State Highs State Lows

Community

WunderPhotos

Upload Photos

1,962,540 photos uploaded!

WunderBlog® & News

Nearby

Air Quality

  Air Quality AQ Index Pollutant
Not available.

Snow Depth

Station Depth Elevation

Earthquake Activity

City Distance Mag. Time & Date
Minimum magnitude displayed is 2.5.

Coastal Water Temperatures

Place Temperature

Stations

Nearby Weather Stations

Station Location Temp. Windchill Dew Point Humidity Wind Precip. Elev Updated Type
                   

Watches & Warnings

Winter Weather Advisory
Issued: 2:44 PM PST Feb. 26, 2017 – National Weather Service

... Winter Weather Advisory remains in effect until 4 am PST
Monday...

* snow accumulations: 3 to 6 inches.

* Timing: the highest snowfall rates are expected this afternoon.

* Locations include: Highway 97 at Modoc Point, and from Spring
Creek to Crescent.

* Impacts: roads are expected to become snow covered in heavier
snow showers. Travel may be difficult at times.

* View the hazard area in detail at
http://weather.Gov/Medford/hazard

Precautionary/preparedness actions...

* slow down and allow extra time to reach your destination.

* Carry tire chains and be prepared for snow covered roads and
limited visibilities.

* See weather.Gov/Medford/cams for latest Road conditions.

* A Winter Weather Advisory for snow means that periods of snow
will cause travel difficulties.